Regional Weather Roundup
Issued by NWS Cleveland, OH

Home | Current Version | Previous Version | Text Only | Print | Product List | Glossary On
Versions: 1 2 3 4 5 6 7 8 9 10 11 12 13 14 15 16 17 18 19 20 21 22 23 24 25 26 27 28 29 30 31 32 33 34 35 36 37 38 39 40 41 42 43 44 45 46 47 48 49 50
000
ASUS41 KCLE 191512
RWRCLE
OHIO REGIONAL WEATHER ROUNDUP
NATIONAL WEATHER SERVICE WILMINGTON, OH
1100 AM EDT MON APR 19 2021

NOTE: "FAIR" INDICATES FEW OR NO CLOUDS BELOW 12,000 FEET WITH NO
SIGNIFICANT WEATHER AND/OR OBSTRUCTIONS TO VISIBILITY.

OHZ001>008-015>018-024>027-034-035-043-044-191600-
   NORTHWEST OHIO

CITY           SKY/WX    TMP DP  RH WIND       PRES   REMARKS
DEFIANCE       FAIR      60  36  40 W12G23    29.83S
FINDLAY        FAIR      61  39  44 W15       29.83F
TOLEDO EXPRESS FAIR      62  35  36 W13G24    29.81F
TOLEDO EXEC    FAIR      60  37  42 SW10G18   29.82F
LIMA           FAIR      60  39  45 W14       29.85F
$$

OHZ009>014-019>023-028>033-038-089-191600-
   NORTHEAST OHIO

CITY           SKY/WX    TMP DP  RH WIND       PRES   REMARKS
CLE-HOPKINS    FAIR      60  36  40 W13       29.83S
CLE-LAKEFRONT  FAIR      61  37  41 SW9       29.83F
CUY CO. ARPT   MOSUNNY   57  36  44 SW9       29.84S
LORAIN-ELYRIA  FAIR      59  37  44 W14G20    29.84F
ASHTABULA      FAIR      57  40  52 VRB5      29.85S
AKRON-CANTON   FAIR      58  42  55 SW10      29.86F
WOOSTER        FAIR      56  42  59 W12       29.87S
MANSFIELD      FAIR      59  35  40 SW14G23   29.86S
YOUNGSTOWN     PTSUNNY   56  41  57 SW9       29.86S
$$

OHZ042-051>053-060>062-070>072-077>081-191600-
  SOUTHWEST OHIO

CITY           SKY/WX    TMP DP  RH WIND       PRES   REMARKS
CINC-COVINGTON FAIR      59  41  51 W9        29.93S
CINC-LUNKEN    FAIR      60  42  51 W6        29.94S
HAMILTON       FAIR      59  43  55 VRB3      29.93S
DAYTON         FAIR      60  38  43 SW7       29.90S
WRIGHT-PAT AFB NOT AVBL
DAYTON GENERAL FAIR      58  42  55 SW8       29.90S
WILMINGTON     FAIR      58  41  53 W10       29.91S
$$

OHZ036-037-039>041-045>050-054>059-063>069-073>076-082>088-191600-
  CENTRAL AND SOUTHEAST OHIO

CITY           SKY/WX    TMP DP  RH WIND       PRES   REMARKS
COLUMBUS       PTSUNNY   59  37  44 S7        29.89S
OSU AIRPORT    FAIR      60  38  43 SW6       29.89S
BOLTON FIELD   SUNNY     57  39  51 W10       29.90S
RICKENBACK AFB FAIR      57  40  52 SW9       29.90S
NEWARK         FAIR      60  37  42 SW10      29.88S
MARION         FAIR      58  37  45 SW12G21   29.87
LANCASTER      FAIR      59  41  51 SW12      29.90S
ZANESVILLE     FAIR      58  37  45 SW7       29.89S
NEW PHILLY     FAIR      56  46  69 E6        29.88F
$$



USA.gov is the U.S. government's official web portal to all federal, state and local government web resources and services.